Terminal Aerodrome Forecast
Issued by NWS

Home | Current Version | Previous Version | Text Only | Print | Product List | Glossary On
Versions: 1 2 3 4 5 6 7 8 9 10 11 12
000
FTUS46 KMFR 302300
TAFLMT
TAF
KLMT 302320Z 3100/3124 31011KT P6SM VCTS BKN060CB BKN200
     FM310500 VRB03KT P6SM SCT060 BKN200
     FM312200 31012KT P6SM VCTS BKN060CB BKN200=

USA.gov is the U.S. government's official web portal to all federal, state and local government web resources and services.